| time (UTC) | temp F | wind direction | speed MPH | gust MPH | rain 1hr in | rain 24hr in | rain mn in | humidity % | barometer mb |
| 20260902191804 | 72 | 291 | 2.0 | 3.0 | 0.02 | 0.33 | 0.33 | 96 | 1018.3 |
| 20260902191304 | 73 | 311 | 0.0 | 6.0 | 0.03 | 0.33 | 0.33 | 98 | 1018.1 |
| 20260902190804 | 72 | 309 | 2.0 | 6.0 | 0.03 | 0.33 | 0.33 | 97 | 1018.7 |
| 20260902190304 | 72 | 266 | 2.0 | 6.0 | 0.04 | 0.33 | 0.33 | 97 | 1018.9 |
| 20260902184304 | 71 | 200 | 0.0 | 2.0 | 0.06 | 0.33 | 0.33 | 97 | 1019.0 |
| 20260902182804 | 70 | 43 | 0.0 | 3.0 | 0.06 | 0.32 | 0.32 | 97 | 1018.7 |
| 20260902182306 | 70 | 52 | 1.0 | 5.0 | 0.06 | 0.32 | 0.32 | 97 | 1018.8 |
| 20260902181804 | 70 | 94 | 0.0 | 5.0 | 0.05 | 0.31 | 0.31 | 96 | 1019.2 |
| 20260902180305 | 70 | 224 | 1.0 | 3.0 | 0.04 | 0.29 | 0.29 | 96 | 1020.7 |
| 20260902174806 | 70 | 257 | 0.0 | 2.0 | 0.27 | 0.27 | 0.27 | 96 | 1021.1 |
| 20260902172308 | 70 | 257 | 2.0 | 6.0 | 0.26 | 0.26 | 0.26 | 94 | 1021.3 |
| 20260902171304 | 70 | 317 | 0.0 | 5.0 | 0.26 | 0.26 | 0.26 | 94 | 1021.3 |
| 20260902165804 | 74 | 6 | 10.0 | 30.0 | 0.18 | 0.18 | 0.18 | 89 | 1022.8 |
| 20260902164804 | 77 | 68 | 0.0 | 3.0 | 0.00 | 0.00 | 0.00 | 87 | 1020.8 |
| 20260902163804 | 78 | 68 | 3.0 | 5.0 | 0.00 | 0.00 | 0.00 | 85 | 1020.6 |
| 20260902161804 | 78 | 152 | 1.0 | 6.0 | 0.00 | 0.00 | 0.00 | 86 | 1020.2 |
| 20260902160805 | 78 | 36 | 2.0 | 7.0 | 0.00 | 0.00 | 0.00 | 87 | 1020.3 |
| 20260902160304 | 78 | 19 | 2.0 | 7.0 | 0.00 | 0.00 | 0.00 | 88 | 1020.1 |
| 20260902155804 | 77 | 79 | 3.0 | 7.0 | 0.00 | 0.00 | 0.00 | 88 | 1020.0 |
| 20260902153804 | 78 | 83 | 2.0 | 7.0 | 0.00 | 0.00 | 0.00 | 87 | 1019.8 |
| 20260902151804 | 78 | 154 | 2.0 | 7.0 | 0.00 | 0.00 | 0.00 | 87 | 1019.8 |
| 20260902151304 | 78 | 118 | 3.0 | 6.0 | 0.00 | 0.00 | 0.00 | 86 | 1019.8 |
| 20260902150303 | 78 | 148 | 1.0 | 7.0 | 0.00 | 0.00 | 0.00 | 88 | 1019.9 |
| 20260902145306 | 77 | 80 | 2.0 | 8.0 | 0.00 | 0.00 | 0.00 | 89 | 1019.9 |
| 20260902144804 | 76 | 70 | 2.0 | 8.0 | 0.00 | 0.00 | 0.00 | 89 | 1020.0 |
| 20260902143804 | 76 | 99 | 1.0 | 5.0 | 0.00 | 0.00 | 0.00 | 90 | 1020.1 |
| 20260902143304 | 76 | 133 | 1.0 | 5.0 | 0.00 | 0.00 | 0.00 | 90 | 1020.1 |
| 20260902142804 | 75 | 46 | 2.0 | 6.0 | 0.00 | 0.00 | 0.00 | 91 | 1020.2 |
| 20260902142306 | 75 | 96 | 1.0 | 8.0 | 0.00 | 0.00 | 0.00 | 92 | 1020.2 |
| 20260902141804 | 75 | 65 | 0.0 | 8.0 | 0.00 | 0.00 | 0.00 | 91 | 1020.2 |
| 20260902135804 | 75 | 24 | 0.0 | 7.0 | 0.00 | 0.00 | 0.00 | 91 | 1020.1 |
| 20260902134804 | 75 | 165 | 1.0 | 6.0 | 0.00 | 0.00 | 0.00 | 91 | 1019.8 |
| 20260902133804 | 75 | 106 | 3.0 | 7.0 | 0.00 | 0.00 | 0.00 | 92 | 1019.6 |
| 20260902132804 | 74 | 89 | 3.0 | 7.0 | 0.00 | 0.00 | 0.00 | 93 | 1019.5 |
| 20260902131303 | 74 | 69 | 3.0 | 10.0 | 0.00 | 0.00 | 0.00 | 95 | 1019.6 |
| 20260902130304 | 73 | 46 | 2.0 | 5.0 | 0.00 | 0.00 | 0.00 | 96 | 1019.5 |
| 20260902124804 | 73 | 48 | 3.0 | 5.0 | 0.00 | 0.00 | 0.00 | 96 | 1019.5 |
| 20260902122305 | 73 | 61 | 1.0 | 3.0 | 0.00 | 0.00 | 0.00 | 96 | 1019.4 |
| 20260902121304 | 72 | 55 | 1.0 | 5.0 | 0.00 | 0.00 | 0.00 | 96 | 1019.3 |
| 20260902115803 | 72 | 24 | 2.0 | 3.0 | 0.00 | 0.00 | 0.00 | 97 | 1019.2 |
| 20260902114305 | 72 | 61 | 3.0 | 5.0 | 0.00 | 0.00 | 0.00 | 98 | 1019.1 |
| 20260902113804 | 72 | 65 | 1.0 | 2.0 | 0.00 | 0.00 | 0.00 | 98 | 1019.0 |
| 20260902112805 | 71 | 65 | 1.0 | 3.0 | 0.00 | 0.00 | 0.00 | 98 | 1018.9 |
| 20260902111805 | 70 | 64 | 0.0 | 2.0 | 0.00 | 0.00 | 0.00 | 98 | 1018.9 |
| 20260902110303 | 70 | 64 | 0.0 | 0.0 | 0.00 | 0.00 | 0.00 | 97 | 1018.8 |
| 20260902105805 | 70 | 64 | 0.0 | 0.0 | 0.00 | 0.00 | 0.00 | 98 | 1018.9 |
| 20260902103303 | 70 | 64 | 0.0 | 0.0 | 0.00 | 0.00 | 0.00 | 97 | 1018.8 |
| 20260902101304 | 70 | 64 | 0.0 | 0.0 | 0.00 | 0.00 | 0.00 | 97 | 1018.6 |
| 20260902100304 | 70 | 64 | 0.0 | 0.0 | 0.00 | 0.00 | 0.00 | 97 | 1018.5 |
| 20260902095806 | 70 | 64 | 0.0 | 1.0 | 0.00 | 0.00 | 0.00 | 97 | 1018.5 |
| 20260902095307 | 70 | 64 | 0.0 | 1.0 | 0.00 | 0.00 | 0.00 | 97 | 1018.5 |
| 20260902093807 | 70 | 64 | 0.0 | 0.0 | 0.00 | 0.00 | 0.00 | 97 | 1018.5 |
| 20260902092805 | 70 | 64 | 0.0 | 1.0 | 0.00 | 0.00 | 0.00 | 97 | 1018.4 |
| 20260902092305 | 70 | 64 | 0.0 | 1.0 | 0.00 | 0.00 | 0.00 | 97 | 1018.6 |
| 20260902085805 | 71 | 64 | 0.0 | 0.0 | 0.00 | 0.00 | 0.00 | 97 | 1018.5 |
| 20260902084805 | 71 | 64 | 0.0 | 0.0 | 0.00 | 0.00 | 0.00 | 97 | 1018.4 |
| 20260902084305 | 71 | 64 | 0.0 | 0.0 | 0.00 | 0.00 | 0.00 | 97 | 1018.3 |
| 20260902083805 | 71 | 64 | 0.0 | 0.0 | 0.00 | 0.00 | 0.00 | 96 | 1018.4 |
| 20260902083305 | 71 | 64 | 0.0 | 0.0 | 0.00 | 0.00 | 0.00 | 97 | 1018.4 |
| 20260902081805 | 71 | 64 | 0.0 | 0.0 | 0.00 | 0.00 | 0.00 | 97 | 1018.5 |
| 20260902080805 | 71 | 64 | 0.0 | 0.0 | 0.00 | 0.00 | 0.00 | 96 | 1018.4 |
| 20260902080306 | 71 | 64 | 0.0 | 0.0 | 0.00 | 0.00 | 0.00 | 96 | 1018.4 |
| 20260902074805 | 71 | 63 | 0.0 | 0.0 | 0.00 | 0.00 | 0.00 | 96 | 1018.3 |
| 20260902073305 | 72 | 62 | 0.0 | 0.0 | 0.00 | 0.00 | 0.00 | 96 | 1018.4 |
| 20260902072805 | 72 | 62 | 0.0 | 1.0 | 0.00 | 0.00 | 0.00 | 96 | 1018.4 |
| 20260902072309 | 72 | 62 | 0.0 | 2.0 | 0.00 | 0.00 | 0.00 | 96 | 1018.5 |
| 20260902071305 | 72 | 64 | 0.0 | 1.0 | 0.00 | 0.00 | 0.00 | 96 | 1018.3 |
| 20260902070305 | 72 | 64 | 0.0 | 1.0 | 0.00 | 0.00 | 0.00 | 95 | 1018.1 |
| 20260902063804 | 73 | 64 | 0.0 | 1.0 | 0.00 | 0.00 | 0.00 | 95 | 1017.7 |
| 20260902063307 | 73 | 64 | 0.0 | 1.0 | 0.00 | 0.00 | 0.00 | 94 | 1017.5 |
| 20260902062805 | 73 | 64 | 0.0 | 1.0 | 0.00 | 0.00 | 0.00 | 95 | 1017.6 |
| 20260902060305 | 74 | 70 | 0.0 | 1.0 | 0.00 | 0.00 | 0.00 | 93 | 1017.1 |
| 20260902055804 | 74 | 70 | 0.0 | 1.0 | 0.00 | 0.00 | 0.00 | 92 | 1017.1 |
| 20260902054805 | 74 | 70 | 0.0 | 1.0 | 0.00 | 0.00 | 0.00 | 91 | 1016.9 |
| 20260902052805 | 75 | 69 | 0.0 | 9.0 | 0.00 | 0.00 | 0.00 | 88 | 1017.2 |
| 20260902051804 | 76 | 36 | 5.0 | 9.0 | 0.00 | 0.00 | 0.00 | 85 | 1017.3 |
| 20260902051305 | 77 | 43 | 2.0 | 5.0 | 0.00 | 0.00 | 0.00 | 85 | 1017.5 |
| 20260902050805 | 77 | 70 | 0.0 | 3.0 | 0.00 | 0.00 | 0.00 | 84 | 1017.7 |
| 20260902050306 | 77 | 339 | 0.0 | 1.0 | 0.00 | 0.00 | 0.00 | 84 | 1017.8 |
| 20260902045806 | 77 | 342 | 0.0 | 1.0 | 0.00 | 0.00 | 0.00 | 84 | 1017.9 |
| 20260902044804 | 78 | 86 | 0.0 | 5.0 | 0.00 | 0.00 | 0.00 | 84 | 1017.9 |
| 20260902042805 | 78 | 40 | 1.0 | 5.0 | 0.00 | 0.00 | 0.00 | 92 | 1017.7 |
| 20260902040812 | 78 | 44 | 0.0 | 1.0 | 0.00 | 0.00 | 0.00 | 90 | 1017.2 |
| 20260902035805 | 79 | 45 | 0.0 | 1.0 | 0.00 | 0.00 | 0.00 | 89 | 1017.1 |
| 20260902035306 | 79 | 45 | 0.0 | 1.0 | 0.00 | 0.00 | 0.00 | 89 | 1017.1 |
| 20260902034805 | 79 | 45 | 0.0 | 1.0 | 0.00 | 0.00 | 0.00 | 88 | 1017.0 |
| 20260902034304 | 79 | 45 | 0.0 | 1.0 | 0.00 | 0.00 | 0.00 | 88 | 1016.8 |
| 20260902031804 | 80 | 33 | 1.0 | 5.0 | 0.00 | 0.00 | 0.00 | 87 | 1016.8 |
| 20260902031305 | 80 | 47 | 1.0 | 3.0 | 0.00 | 0.00 | 0.00 | 87 | 1016.6 |
| 20260902030805 | 80 | 11 | 1.0 | 7.0 | 0.00 | 0.00 | 0.00 | 87 | 1016.5 |
| 20260902023305 | 82 | 61 | 3.0 | 9.0 | 0.00 | 0.00 | 0.00 | 83 | 1015.8 |
| 20260902022806 | 83 | 41 | 3.0 | 9.0 | 0.00 | 0.00 | 0.00 | 82 | 1015.9 |
| 20260902022306 | 83 | 88 | 4.0 | 8.0 | 0.00 | 0.00 | 0.00 | 82 | 1015.7 |
| 20260902021805 | 82 | 78 | 2.0 | 8.0 | 0.00 | 0.00 | 0.00 | 82 | 1015.7 |
| 20260902021305 | 83 | 238 | 1.0 | 2.0 | 0.00 | 0.00 | 0.00 | 81 | 1015.7 |
| 20260902020804 | 83 | 238 | 0.0 | 2.0 | 0.00 | 0.00 | 0.00 | 80 | 1015.7 |
| 20260902020305 | 83 | 234 | 0.0 | 3.0 | 0.00 | 0.00 | 0.00 | 80 | 1015.6 |
| 20260902015306 | 84 | 269 | 1.0 | 6.0 | 0.00 | 0.00 | 0.00 | 78 | 1015.4 |
| 20260902014805 | 84 | 310 | 1.0 | 8.0 | 0.00 | 0.00 | 0.00 | 78 | 1015.4 |
| 20260902013306 | 83 | 333 | 2.0 | 5.0 | 0.00 | 0.00 | 0.00 | 81 | 1015.2 |
| 20260902010305 | 84 | 266 | 1.0 | 6.0 | 0.00 | 0.00 | 0.00 | 81 | 1014.7 |
| 20260902005805 | 83 | 313 | 0.0 | 6.0 | 0.00 | 0.00 | 0.00 | 80 | 1014.8 |
| 20260902005306 | 82 | 285 | 1.0 | 3.0 | 0.00 | 0.00 | 0.00 | 87 | 1014.9 |
| 20260902004806 | 82 | 223 | 0.0 | 3.0 | 0.00 | 0.00 | 0.00 | 85 | 1014.9 |
| 20260902003804 | 82 | 221 | 0.0 | 2.0 | 0.00 | 0.00 | 0.00 | 86 | 1014.8 |
| 20260902003306 | 81 | 221 | 0.0 | 0.0 | 0.00 | 0.00 | 0.00 | 87 | 1014.8 |
| 20260902002804 | 81 | 221 | 0.0 | 0.0 | 0.00 | 0.00 | 0.00 | 88 | 1014.7 |
| 20260902001805 | 82 | 221 | 0.0 | 0.0 | 0.00 | 0.00 | 0.00 | 88 | 1014.4 |
| 20260902000805 | 84 | 221 | 0.0 | 3.0 | 0.00 | 0.00 | 0.00 | 84 | 1013.6 |
| 20260901231305 | 88 | 207 | 1.0 | 3.0 | 0.00 | 0.00 | 0.00 | 71 | 1014.3 |
| 20260901225306 | 90 | 202 | 1.0 | 3.0 | 0.00 | 0.00 | 0.00 | 66 | 1014.4 |
| 20260901224305 | 90 | 225 | 1.0 | 8.0 | 0.00 | 0.00 | 0.00 | 66 | 1014.3 |
| 20260901223805 | 91 | 230 | 3.0 | 8.0 | 0.00 | 0.00 | 0.00 | 65 | 1014.4 |
| 20260901222306 | 91 | 200 | 4.0 | 9.0 | 0.00 | 0.00 | 0.00 | 65 | 1014.3 |
| 20260901221804 | 91 | 192 | 2.0 | 6.0 | 0.00 | 0.00 | 0.00 | 67 | 1014.2 |
| 20260901221304 | 91 | 228 | 3.0 | 5.0 | 0.00 | 0.00 | 0.00 | 64 | 1014.2 |
| 20260901215805 | 92 | 212 | 1.0 | 6.0 | 0.00 | 0.00 | 0.00 | 64 | 1014.4 |
| 20260901213805 | 92 | 227 | 2.0 | 9.0 | 0.00 | 0.00 | 0.00 | 63 | 1014.4 |
| 20260901212306 | 93 | 211 | 2.0 | 8.0 | 0.00 | 0.00 | 0.00 | 64 | 1014.6 |
| 20260901211305 | 93 | 244 | 5.0 | 12.0 | 0.00 | 0.00 | 0.00 | 62 | 1014.7 |
| 20260901210806 | 93 | 252 | 3.0 | 10.0 | 0.00 | 0.00 | 0.00 | 62 | 1014.7 |
| 20260901210305 | 92 | 210 | 2.0 | 8.0 | 0.00 | 0.00 | 0.00 | 66 | 1014.9 |
| 20260901205306 | 92 | 257 | 2.0 | 3.0 | 0.00 | 0.00 | 0.00 | 66 | 1014.8 |
| 20260901204805 | 91 | 332 | 2.0 | 3.0 | 0.00 | 0.00 | 0.00 | 70 | 1014.9 |
| 20260901202805 | 90 | 292 | 1.0 | 5.0 | 0.00 | 0.00 | 0.00 | 67 | 1015.0 |
| 20260901201305 | 91 | 285 | 3.0 | 9.0 | 0.00 | 0.00 | 0.00 | 66 | 1015.2 |
| 20260901200805 | 92 | 294 | 2.0 | 9.0 | 0.00 | 0.00 | 0.00 | 64 | 1015.2 |